| time (UTC) | temp C | wind direction | speed KPH | gust KPH | rain 1hr cm | rain 24hr cm | rain mn cm | humidity % | barometer mb |
| 20260502194839 | 13 | 270 | 0.0 | 0.0 | 0.00 | 0.03 | 0.00 | 82 | 1014.0 |
| 20260502194316 | 13 | 270 | 0.0 | 0.0 | 0.00 | 0.03 | 0.00 | 81 | 1014.0 |
| 20260502193751 | 13 | 270 | 0.0 | 0.0 | 0.00 | 0.03 | 0.00 | 79 | 1014.0 |
| 20260502192445 | 13 | 270 | 0.0 | 0.0 | 0.00 | 0.03 | 0.00 | 78 | 1014.0 |
| 20260502191921 | 13 | 270 | 0.0 | 0.0 | 0.00 | 0.03 | 0.00 | 77 | 1014.0 |
| 20260502191357 | 13 | 270 | 0.0 | 0.0 | 0.00 | 0.03 | 0.00 | 78 | 1014.0 |
| 20260502190834 | 13 | 270 | 0.0 | 0.0 | 0.00 | 0.03 | 0.00 | 77 | 1014.0 |
| 20260502190310 | 14 | 270 | 0.0 | 0.0 | 0.00 | 0.03 | 0.00 | 77 | 1014.1 |
| 20260502185238 | 14 | 270 | 0.0 | 0.0 | 0.00 | 0.03 | 0.00 | 76 | 1014.0 |
| 20260502184714 | 13 | 270 | 0.0 | 0.0 | 0.00 | 0.03 | 0.00 | 76 | 1014.1 |
| 20260502184150 | 14 | 270 | 0.0 | 0.0 | 0.00 | 0.03 | 0.00 | 76 | 1014.2 |
| 20260502183351 | 14 | 270 | 0.0 | 0.0 | 0.00 | 0.03 | 0.00 | 76 | 1014.2 |
| 20260502182828 | 14 | 270 | 0.0 | 0.0 | 0.00 | 0.03 | 0.00 | 76 | 1014.2 |
| 20260502182305 | 14 | 270 | 0.0 | 0.0 | 0.00 | 0.03 | 0.00 | 76 | 1014.3 |
| 20260502181740 | 14 | 270 | 0.0 | 0.0 | 0.00 | 0.03 | 0.00 | 76 | 1014.3 |
| 20260502180941 | 14 | 270 | 0.0 | 0.0 | 0.00 | 0.03 | 0.00 | 76 | 1014.3 |
| 20260502180144 | 14 | 270 | 0.0 | 0.0 | 0.00 | 0.03 | 0.00 | 77 | 1014.4 |
| 20260502170518 | 15 | 248 | 6.4 | 6.4 | 0.00 | 0.03 | 0.00 | 76 | 1014.5 |
| 20260502071237 | 10 | 270 | 6.4 | 8.0 | 0.00 | 0.03 | 0.00 | 91 | 1018.5 |
| 20260502070714 | 10 | 292 | 6.4 | 8.0 | 0.00 | 0.03 | 0.00 | 91 | 1018.4 |
| 20260502070150 | 10 | 270 | 8.0 | 9.7 | 0.00 | 0.03 | 0.00 | 91 | 1018.4 |
| 20260502065627 | 10 | 248 | 0.0 | 0.0 | 0.00 | 0.03 | 0.00 | 91 | 1018.4 |
| 20260502065104 | 10 | 270 | 8.0 | 8.0 | 0.00 | 0.03 | 0.00 | 91 | 1018.4 |
| 20260502064541 | 10 | 292 | 9.7 | 9.7 | 0.00 | 0.03 | 0.00 | 91 | 1018.4 |
| 20260502063742 | 10 | 292 | 9.7 | 9.7 | 0.00 | 0.03 | 0.00 | 91 | 1018.4 |
| 20260502062945 | 10 | 292 | 9.7 | 9.7 | 0.00 | 0.03 | 0.00 | 91 | 1018.3 |
| 20260502062422 | 10 | 202 | 4.8 | 6.4 | 0.00 | 0.03 | 0.00 | 91 | 1018.3 |
| 20260502061859 | 10 | 292 | 9.7 | 11.3 | 0.00 | 0.03 | 0.00 | 91 | 1018.2 |
| 20260502061336 | 10 | 292 | 8.0 | 8.0 | 0.00 | 0.03 | 0.00 | 91 | 1018.3 |
| 20260502060813 | 10 | 292 | 11.3 | 11.3 | 0.00 | 0.03 | 0.00 | 92 | 1018.4 |
| 20260502060249 | 10 | 292 | 4.8 | 4.8 | 0.00 | 0.03 | 0.00 | 92 | 1018.3 |
| 20260502055726 | 10 | 292 | 8.0 | 8.0 | 0.00 | 0.03 | 0.00 | 92 | 1018.3 |
| 20260502055203 | 10 | 292 | 6.4 | 8.0 | 0.00 | 0.03 | 0.00 | 92 | 1018.3 |
| 20260502054640 | 10 | 292 | 12.9 | 12.9 | 0.00 | 0.03 | 0.00 | 92 | 1018.3 |
| 20260502054116 | 10 | 270 | 8.0 | 9.7 | 0.00 | 0.03 | 0.00 | 91 | 1018.3 |
| 20260502053554 | 10 | 225 | 9.7 | 9.7 | 0.00 | 0.03 | 0.00 | 91 | 1018.3 |
| 20260502053031 | 10 | 225 | 3.2 | 3.2 | 0.00 | 0.03 | 0.00 | 91 | 1018.3 |
| 20260502052507 | 10 | 292 | 6.4 | 9.7 | 0.00 | 0.03 | 0.00 | 91 | 1018.3 |
| 20260502051944 | 10 | 292 | 8.0 | 8.0 | 0.00 | 0.03 | 0.00 | 91 | 1018.3 |
| 20260502051421 | 10 | 270 | 9.7 | 9.7 | 0.00 | 0.03 | 0.00 | 91 | 1018.3 |
| 20260502050858 | 10 | 292 | 11.3 | 11.3 | 0.00 | 0.03 | 0.00 | 91 | 1018.3 |
| 20260502050335 | 10 | 248 | 6.4 | 6.4 | 0.00 | 0.03 | 0.00 | 91 | 1018.2 |
| 20260502045812 | 10 | 270 | 8.0 | 8.0 | 0.00 | 0.03 | 0.00 | 91 | 1018.3 |
| 20260502045249 | 10 | 248 | 3.2 | 3.2 | 0.00 | 0.03 | 0.00 | 91 | 1018.3 |
| 20260502044726 | 10 | 292 | 11.3 | 11.3 | 0.00 | 0.03 | 0.00 | 92 | 1018.3 |
| 20260502044203 | 10 | 292 | 4.8 | 4.8 | 0.00 | 0.03 | 0.00 | 92 | 1018.2 |
| 20260502043405 | 10 | 270 | 8.0 | 8.0 | 0.00 | 0.03 | 0.00 | 92 | 1018.2 |
| 20260502042842 | 10 | 292 | 8.0 | 8.0 | 0.00 | 0.03 | 0.00 | 92 | 1018.2 |
| 20260502042319 | 10 | 292 | 4.8 | 4.8 | 0.00 | 0.03 | 0.00 | 92 | 1018.3 |
| 20260502041756 | 10 | 292 | 0.0 | 0.0 | 0.00 | 0.03 | 0.00 | 92 | 1018.3 |
| 20260502041233 | 10 | 225 | 1.6 | 1.6 | 0.00 | 0.03 | 0.00 | 92 | 1018.3 |
| 20260502040710 | 10 | 248 | 0.0 | 0.0 | 0.00 | 0.03 | 0.00 | 92 | 1018.2 |
| 20260502040147 | 10 | 270 | 1.6 | 1.6 | 0.00 | 0.03 | 0.00 | 92 | 1018.3 |
| 20260502035624 | 10 | 292 | 6.4 | 6.4 | 0.00 | 0.03 | 0.00 | 93 | 1018.3 |